Location: ?nandapuram
(16.5396°N, 81.1430°E)
Time: 10:15:33
(UTC+00:00)

Cosmos 2322 - Pass Details

Date: 14 April 2026
Orbit: 839 x 854 km, 71.0° (Epoch: 20 May)

Event Time Altitude Azimuth Distance (km) Brightness Sun altitude
Rises 13:04:52 0° 175° (S) 3,391 6.7 -4.2°
Reaches altitude 10° 13:07:31 10° 166° (SSE) 2,459 5.9 -4.8°
Maximum altitude 13:12:32 33° 103° (ESE) 1,384 4.3 -6.0°
Drops below altitude 10° 13:17:33 10° 41° (NE) 2,472 5.9 -7.1°
Sets 13:20:13 0° 32° (NNE) 3,410 6.7 -7.8°
